Location: Benalto
(52.3088°N, 114.2787°W)
Time: 12:49:48
(UTC+00:00)

N. Korean satellite - Pass Details

Date: 07 December 2021
Orbit: 447 x 490 km, 97.3° (Epoch: 27 January)

Event Time Altitude Azimuth Distance (km) Brightness Sun altitude
Rises 14:19:30 0° 359° (N) 2,471 9.9 -10.4°
Reaches altitude 10° 14:22:10 10° 336° (NNW) 1,589 8.7 -10.1°
Maximum altitude 14:24:11 15° 299° (WNW) 1,305 8.1 -9.8°
Drops below altitude 10° 14:26:11 10° 263° (W) 1,579 8.7 -9.5°
Sets 14:28:50 0° 239° (WSW) 2,447 9.8 -9.1°
